{"data":{"norad_id":57253,"epoch":"2026-09-20T07:04:13.807200Z","epoch_age_seconds":141940,"freshness":"FRESH","line1":"1 57253U 23094AM  26263.29460425 -.00000228  00000+0  12283-5 0  9994","line2":"2 57253  43.0030   0.7484 0001121 268.7247  91.3476 15.27574745177000","mean_motion":15.27574745,"eccentricity":0.0001121,"inclination_deg":43.003,"raan_deg":0.7484,"arg_perigee_deg":268.7247,"mean_anomaly_deg":91.3476,"bstar":1.2283e-6,"rev_number":17700,"period_min":94.267073000084,"perigee_km":482.29569071993,"apogee_km":483.83397217054,"semimajor_km":6861.2018314452,"source":"CELESTRAK","updated_at":"2026-09-21T09:00:33.591811Z"}}